Time,TemperatureF,DewpointF,PressureIn,WindDirection,WindDirectionDegrees,WindSpeedMPH,WindSpeedGustMPH,Humidity,HourlyPrecipIn,Conditions,Clouds,dailyrainin,SoftwareType,DateUTC
2013-07-22 00:33:00,66.0,62.0,29.90,North,0,0.0,-999.0,86,0.00,,,-99.99,,2013-07-22 07:33:00,
2013-07-22 00:43:00,66.0,62.0,29.90,North,0,0.0,-999.0,86,0.00,,,-99.99,,2013-07-22 07:43:00,
2013-07-22 01:32:00,66.0,62.0,29.90,WNW,290,4.0,-999.0,86,0.00,,,-99.99,,2013-07-22 08:32:00,
2013-07-22 01:43:00,66.0,62.0,29.90,WNW,290,4.0,-999.0,86,0.00,,,-99.99,,2013-07-22 08:43:00,
2013-07-22 02:33:00,66.0,62.0,29.90,WNW,290,2.0,-999.0,86,0.00,,,-99.99,,2013-07-22 09:33:00,
2013-07-22 02:42:00,66.0,62.0,29.90,WNW,290,2.0,-999.0,86,0.00,,,-99.99,,2013-07-22 09:42:00,
2013-07-22 03:32:00,66.0,62.0,29.89,North,0,0.0,-999.0,87,0.00,,,-99.99,,2013-07-22 10:32:00,
2013-07-22 03:43:00,66.0,62.0,29.89,North,0,0.0,-999.0,87,0.00,,,-99.99,,2013-07-22 10:43:00,
2013-07-22 05:32:00,66.0,62.0,29.89,North,0,0.0,-999.0,87,0.00,,,-99.99,,2013-07-22 12:32:00,
2013-07-22 05:43:00,66.0,62.0,29.89,North,0,0.0,-999.0,87,0.00,,,-99.99,,2013-07-22 12:43:00,
2013-07-22 06:32:00,66.0,62.0,29.90,North,0,0.0,-999.0,87,0.00,,,-99.99,,2013-07-22 13:32:00,
2013-07-22 06:43:00,66.0,62.0,29.90,North,0,0.0,-999.0,87,0.00,,,-99.99,,2013-07-22 13:43:00,
2013-07-22 07:32:00,66.0,62.0,29.91,North,0,0.0,-999.0,88,0.00,,,-99.99,,2013-07-22 14:32:00,
2013-07-22 07:43:00,66.0,62.0,29.91,North,0,0.0,-999.0,88,0.00,,,-99.99,,2013-07-22 14:43:00,
2013-07-22 08:32:00,67.0,63.0,29.93,SW,220,4.0,-999.0,86,0.00,,,-99.99,,2013-07-22 15:32:00,
2013-07-22 08:42:00,67.0,63.0,29.93,SW,220,4.0,-999.0,86,0.00,,,-99.99,,2013-07-22 15:42:00,
2013-07-22 09:32:00,68.0,63.0,29.95,North,0,0.0,-999.0,84,0.00,,,-99.99,,2013-07-22 16:32:00,
2013-07-22 09:43:00,68.0,63.0,29.95,North,0,0.0,-999.0,84,0.00,,,-99.99,,2013-07-22 16:43:00,
2013-07-22 10:32:00,70.0,64.0,29.95,SW,220,1.0,-999.0,82,0.00,,,-99.99,,2013-07-22 17:32:00,
2013-07-22 10:43:00,70.0,64.0,29.95,SW,220,1.0,-999.0,82,0.00,,,-99.99,,2013-07-22 17:43:00,
2013-07-22 12:43:00,70.0,64.0,29.96,West,260,4.0,-999.0,80,0.00,,,-99.99,,2013-07-22 19:43:00,
2013-07-22 13:32:00,70.0,64.0,29.96,WSW,240,6.0,-999.0,80,0.00,,,-99.99,,2013-07-22 20:32:00,
2013-07-22 13:43:00,70.0,64.0,29.96,WSW,240,6.0,-999.0,80,0.00,,,-99.99,,2013-07-22 20:43:00,
2013-07-22 14:32:00,70.0,64.0,29.95,West,260,6.0,-999.0,80,0.00,,,-99.99,,2013-07-22 21:32:00,
2013-07-22 14:43:00,70.0,64.0,29.95,West,260,6.0,-999.0,80,0.00,,,-99.99,,2013-07-22 21:43:00,
2013-07-22 15:32:00,70.0,64.0,29.95,West,260,6.0,-999.0,81,0.00,,,-99.99,,2013-07-22 22:32:00,
2013-07-22 15:43:00,70.0,64.0,29.95,West,260,6.0,-999.0,81,0.00,,,-99.99,,2013-07-22 22:43:00,
2013-07-22 16:42:00,69.0,63.0,29.95,West,260,6.0,-999.0,82,0.00,,,-99.99,,2013-07-22 23:42:00,
2013-07-22 17:43:00,69.0,63.0,29.93,WSW,250,6.0,-999.0,82,0.00,,,-99.99,,2013-07-23 00:43:00,
2013-07-22 18:32:00,69.0,63.0,29.92,WSW,250,6.0,-999.0,82,0.00,,,-99.99,,2013-07-23 01:32:00,
2013-07-22 18:43:00,69.0,63.0,29.92,WSW,250,6.0,-999.0,82,0.00,,,-99.99,,2013-07-23 01:43:00,
2013-07-22 19:33:00,68.0,63.0,29.92,WSW,240,2.0,-999.0,84,0.00,,,-99.99,,2013-07-23 02:33:00,
2013-07-22 19:43:00,68.0,63.0,29.92,WSW,240,2.0,-999.0,84,0.00,,,-99.99,,2013-07-23 02:43:00,
2013-07-22 20:33:00,68.0,63.0,29.93,North,0,0.0,-999.0,83,0.00,,,-99.99,,2013-07-23 03:33:00,
2013-07-22 20:43:00,68.0,63.0,29.93,North,0,0.0,-999.0,83,0.00,,,-99.99,,2013-07-23 03:43:00,
2013-07-22 21:32:00,67.0,62.0,29.94,WSW,240,3.0,-999.0,84,0.00,,,-99.99,,2013-07-23 04:32:00,
2013-07-22 21:42:00,67.0,62.0,29.94,WSW,240,3.0,-999.0,84,0.00,,,-99.99,,2013-07-23 04:42:00,
2013-07-22 22:43:00,67.0,63.0,29.95,North,0,0.0,-999.0,86,0.00,,,-99.99,,2013-07-23 05:43:00,
2013-07-22 23:33:00,67.0,63.0,29.95,SSE,160,6.0,-999.0,87,0.00,,,-99.99,,2013-07-23 06:33:00,
2013-07-22 23:42:00,67.0,63.0,29.95,SSE,160,6.0,-999.0,87,0.00,,,-99.99,,2013-07-23 06:42:00,